Wind_Speed
5 6 9 6 5 8 9 12 8 12 7 7 3 7 2 4 7 5 6 6 6 5 4 4 4 3 3 4 4 4 3 3 3 3 4 4 3 4 5 6 7 7 7
1 5 5 4 6 9 9 6 6 10 4 8 5 9 6 7 10 9 5 6 5 4 3 3 4 4 2 3 4 4 3 2 1 1 3 4 4 4 4 5 5 6 7
1 0 1 2 8 6 7 3 5 11 12 14 15 10 9 3 6 6 2 4 4 3 3 2 3 4 4 2 3 2 2 1 1 1 1 3 4 3 4 4 4 5 7
1 1 3 2 7 7 9 8 6 6 8 5 12 7 7 7 5 3 6 4 5 5 3 3 2 2 3 1 2 1 0 0 0 1 1 3 6 5 4 3 4 6 7
3 4 3 2 5 6 8 6 8 8 4 10 6 7 10 10 10 13 13 8 2 3 1 5 4 3 1 1 2 2 2 2 3 4 5 6 6 6 5 5 5 7 7
5 5 3 1 3 8 7 7 7 5 3 6 13 8 3 9 13 8 13 10 7 3 4 2 4 3 3 4 4 5 5 5 6 6 6 7 7 6 6 7 8 8 8
5 4 3 0 1 5 6 7 8 2 3 5 13 15 12 13 11 13 15 13 11 12 10 9 4 2 4 5 4 6 6 6 6 7 8 8 8 9 8 8 9 11 11
6 5 4 3 1 4 6 8 8 6 6 6 8 13 8 11 14 14 14 8 10 10 11 9 10 9 7 4 5 3 3 6 7 8 8 9 9 8 9 9 10 12 12
7 6 6 5 1 2 5 6 8 8 5 8 9 8 10 7 10 7 9 9 13 10 10 9 7 9 6 4 5 4 4 5 6 6 6 6 7 7 7 8 8 9 9
8 7 7 6 3 0 3 4 7 8 5 7 9 11 10 13 11 7 12 12 13 12 10 10 7 10 8 7 7 7 8 7 7 6 6 7 5 4 5 5 6 7 7
9 8 8 7 6 4 3 3 5 7 7 6 8 12 11 12 11 10 10 11 14 15 14 15 12 10 10 7 8 7 7 8 8 8 9 8 8 8 7 8 8 8 9
8 6 6 6 7 4 5 5 5 7 8 6 5 8 10 10 8 8 9 9 10 14 17 18 14 11 11 8 8 7 6 6 7 8 6 6 5 5 5 7 8 9 9
8 6 5 5 6 6 6 8 8 10 8 7 7 6 6 7 7 8 9 9 10 11 14 14 14 13 13 10 8 7 5 6 6 5 4 3 3 3 4 6 7 9 9
9 8 7 5 7 7 6 10 10 11 8 7 7 6 5 4 7 8 8 9 11 11 13 12 11 12 13 12 9 5 3 3 3 3 3 4 4 5 6 6 8 10 9
10 9 9 7 7 6 7 9 12 12 10 9 8 6 3 1 4 6 7 9 9 10 12 12 12 13 14 13 12 10 7 5 3 4 5 6 5 7 8 9 11 11 11
12 12 10 9 8 7 8 9 15 16 13 12 11 10 7 4 4 4 6 8 9 10 11 12 13 12 12 14 13 13 13 12 10 8 8 8 8 9 11 13 13 14 13
15 14 9 8 7 9 9 10 12 17 18 17 16 16 13 13 9 9 8 8 9 11 11 13 13 12 12 12 12 13 14 14 13 12 11 9 10 10 11 13 13 15 14
16 16 15 12 10 10 11 10 11 15 19 20 19 20 18 19 17 15 13 11 12 13 12 14 15 14 12 11 13 13 14 15 13 11 14 12 9 7 10 13 14 13 15
18 18 20 18 13 13 15 16 14 14 16 20 22 23 22 22 21 20 20 17 16 17 16 14 16 16 16 15 14 13 14 13 14 13 12 11 8 10 10 12 14 16 12
20 21 21 19 17 14 15 18 19 17 17 19 21 23 25 26 24 23 25 24 23 22 21 20 18 19 17 16 18 15 15 14 12 14 14 17 17 13 14 17 19 18 16
22 22 22 23 20 18 15 15 17 18 18 20 22 23 24 25 25 25 27 28 28 28 29 26 24 23 24 21 20 18 18 18 14 13 12 13 15 17 16 16 18 19 16
23 23 23 21 21 18 16 15 16 17 17 19 21 25 26 26 26 28 29 31 32 34 33 33 32 30 28 27 27 24 23 21 20 15 17 16 14 21 25 20 19 19 15
27 26 24 23 22 20 18 17 19 21 21 21 22 23 26 30 30 29 30 34 35 37 38 38 38 36 34 32 32 33 26 25 23 22 21 20 14 20 30 26 20 21 15
32 30 29 28 26 23 25 25 25 26 27 28 28 27 28 29 32 34 34 36 37 38 39 41 42 40 38 34 38 37 32 30 28 28 26 23 16 14 24 27 25 22 15
35 36 33 32 30 28 28 30 34 36 34 33 34 35 35 35 34 35 38 40 40 42 40 40 42 42 42 42 42 42 39 35 31 29 29 29 17 18 24 34 28 21 17
25 33 34 33 33 32 32 33 35 38 40 41 42 40 39 39 41 43 43 44 44 43 42 40 41 42 42 44 46 45 41 39 36 34 32 34 26 21 26 32 30 21 18
Wind_Direction
151 116 84 92 64 58 36 29 13 52 59 91 193 269 287 285 293 9 1 140 141 132 118 111 83 121 95 96 95 97 102 111 111 94 68 43 35 44 43 31 20 22 24
30 94 80 46 42 45 47 18 4 52 61 53 101 131 2 268 257 270 282 114 150 157 136 120 106 108 85 102 96 93 94 85 98 98 48 28 26 27 36 39 31 19 23
211 103 80 64 73 45 84 75 38 34 58 35 57 42 45 19 211 228 301 129 98 162 181 154 128 114 91 94 72 78 92 69 18 324 20 35 19 10 8 22 29 25 15
125 252 346 56 50 45 43 78 90 354 70 53 51 60 71 38 77 331 59 128 144 102 177 198 193 151 133 123 163 148 173 304 346 257 288 344 356 353 347 355 12 10 5
219 244 274 18 45 47 38 42 54 36 67 70 77 30 90 89 54 41 80 99 143 164 147 198 212 229 232 237 241 228 248 276 286 296 298 307 320 327 322 323 314 325 333
221 226 233 204 28 23 36 26 35 29 56 63 68 42 101 97 82 20 54 37 71 17 33 98 202 199 253 254 261 273 281 293 298 305 300 299 299 300 295 293 293 299 302
218 221 210 161 44 28 31 22 22 64 103 99 105 77 75 104 91 42 19 10 20 27 33 27 65 37 246 264 274 275 285 293 291 289 289 286 288 293 292 287 290 295 296
199 223 234 261 78 36 36 29 53 108 102 134 150 102 71 90 68 51 31 4 25 29 39 35 50 48 39 359 348 324 303 294 287 282 280 282 285 286 289 300 301 297 295
204 230 236 253 229 3 43 47 87 96 84 95 75 101 108 94 82 55 60 35 33 30 31 36 42 66 56 28 39 25 3 349 326 316 309 304 310 316 313 306 303 300 303
217 214 233 248 236 344 73 76 109 108 99 95 98 93 88 96 94 90 65 49 45 37 28 67 51 56 45 52 52 41 27 22 15 5 8 11 9 5 352 342 332 328 327
211 220 226 245 245 192 196 143 127 124 132 131 109 106 105 95 97 89 69 55 52 53 47 50 44 56 58 39 42 41 40 33 33 27 37 48 52 52 43 36 18 5 355
220 224 220 235 252 222 187 173 164 148 143 144 126 110 103 94 92 70 62 67 62 64 56 49 42 37 56 49 46 44 30 32 31 30 42 61 60 48 32 13 1 348 337
212 223 237 236 239 244 200 189 185 172 162 155 152 134 88 77 74 70 59 47 58 56 57 51 47 36 45 44 40 41 27 31 29 15 357 2 13 352 353 351 347 344 345
201 215 242 239 235 249 222 204 191 184 183 185 181 152 124 72 47 44 36 37 24 31 38 35 33 26 37 38 33 25 9 26 22 350 343 333 328 324 335 334 334 337 333
221 214 233 236 244 245 243 221 213 205 205 214 213 212 184 58 28 19 22 17 8 7 10 14 10 12 15 23 20 13 343 338 325 305 299 299 317 322 319 320 323 327 330
229 236 228 231 241 246 246 234 222 219 219 227 232 236 236 253 292 328 347 353 356 351 349 349 355 2 3 3 8 360 352 338 320 312 298 291 300 307 309 310 318 323 323
233 248 245 233 238 257 253 252 238 231 232 233 238 248 255 262 278 297 313 328 331 332 335 333 340 346 351 350 348 346 340 335 330 313 317 291 295 299 299 308 311 312 315
225 238 249 249 248 258 275 273 262 250 246 244 247 248 251 263 273 281 290 300 309 316 317 316 330 330 328 329 332 332 332 327 333 329 315 312 304 298 302 311 311 314 320
224 231 247 263 262 257 263 272 269 260 255 251 250 255 253 252 258 271 282 284 290 294 302 305 306 320 329 324 315 316 316 320 324 329 324 331 328 331 315 318 319 318 319
226 234 244 253 260 263 261 265 268 265 262 261 254 249 255 261 261 262 271 278 281 284 290 294 297 300 308 312 311 311 305 309 314 324 329 329 345 337 325 327 325 326 327
219 228 237 246 254 256 250 250 261 268 265 263 265 263 255 255 261 262 261 268 273 279 283 287 291 292 294 298 300 304 304 299 302 296 304 321 330 324 311 313 315 314 320
226 225 233 240 246 251 255 254 255 263 269 270 266 267 269 265 258 258 260 261 264 270 275 279 283 285 290 291 295 297 297 292 297 297 296 300 315 328 312 314 308 308 313
232 237 240 241 249 254 258 259 261 264 269 272 274 275 274 274 272 266 264 264 263 263 268 274 277 282 285 290 288 288 290 295 295 292 289 289 303 324 319 308 302 300 299
240 240 244 249 253 256 262 266 269 271 274 275 276 274 274 275 277 277 274 270 269 268 267 271 275 278 280 279 280 284 284 288 291 287 287 282 283 315 320 302 296 287 292
245 242 242 246 254 259 264 267 269 272 275 279 280 280 280 277 275 275 277 277 275 275 275 276 277 276 276 274 274 276 280 282 282 281 279 276 279 297 320 315 286 282 286
251 245 245 246 248 255 259 266 271 272 274 277 278 280 281 280 280 279 277 278 279 280 284 283 281 280 277 274 275 275 272 274 277 276 274 276 265 296 308 312 281 277 277
Height
3226 3225 3226 3227 3226 3226 3226 3225 3225 3223 3224 3224 3224 3221 3221 3223 3224 3226 3226 3227 3228 3229 3230 3231 3231 3232 3232 3232 3233 3233 3233 3234 3234 3234 3234 3234 3234 3234 3234 3233 3233 3232 3232
3226 3226 3227 3228 3228 3227 3226 3227 3226 3225 3225 3224 3224 3225 3223 3223 3224 3226 3227 3227 3228 3229 3230 3231 3232 3232 3233 3232 3233 3233 3233 3234 3234 3234 3235 3235 3235 3234 3234 3233 3233 3233 3233
3227 3228 3228 3228 3229 3229 3228 3229 3227 3225 3225 3224 3223 3226 3225 3222 3224 3227 3227 3227 3228 3229 3230 3231 3231 3232 3233 3233 3233 3233 3233 3234 3234 3235 3235 3234 3234 3234 3233 3233 3233 3233 3233
3227 3227 3228 3228 3229 3229 3229 3227 3228 3226 3225 3226 3225 3227 3227 3226 3225 3228 3228 3228 3228 3229 3230 3231 3231 3232 3231 3232 3232 3233 3233 3233 3233 3234 3234 3234 3234 3233 3233 3233 3233 3233 3233
3227 3227 3229 3229 3229 3228 3228 3228 3228 3228 3226 3226 3226 3227 3227 3228 3227 3226 3227 3228 3229 3229 3229 3230 3231 3231 3232 3232 3232 3233 3232 3232 3233 3233 3233 3234 3233 3233 3233 3233 3232 3232 3231
3226 3227 3228 3229 3230 3229 3228 3228 3228 3228 3227 3227 3228 3229 3228 3229 3228 3227 3227 3228 3230 3229 3229 3230 3230 3231 3231 3231 3232 3231 3232 3231 3231 3232 3231 3231 3231 3232 3232 3231 3231 3230 3229
3226 3227 3228 3228 3229 3230 3230 3229 3228 3228 3228 3228 3230 3230 3228 3228 3229 3229 3228 3229 3229 3229 3229 3228 3228 3229 3230 3230 3230 3231 3230 3230 3230 3230 3229 3229 3229 3229 3229 3228 3228 3229 3228
3225 3226 3228 3228 3229 3230 3230 3229 3228 3229 3229 3229 3229 3229 3230 3231 3230 3230 3231 3229 3230 3230 3229 3229 3228 3228 3228 3229 3228 3227 3228 3227 3227 3227 3227 3227 3227 3227 3226 3228 3228 3226 3225
3223 3224 3226 3227 3229 3229 3230 3230 3230 3230 3230 3230 3230 3231 3230 3231 3232 3232 3234 3231 3230 3230 3230 3229 3229 3228 3228 3227 3228 3226 3226 3226 3226 3226 3226 3226 3226 3225 3225 3224 3224 3223 3222
3221 3223 3224 3225 3227 3229 3230 3231 3231 3231 3232 3232 3231 3231 3232 3232 3233 3235 3235 3233 3232 3231 3231 3232 3231 3229 3229 3228 3228 3228 3228 3228 3226 3225 3225 3226 3225 3225 3225 3224 3223 3221 3220
3220 3222 3224 3224 3225 3228 3229 3230 3231 3232 3233 3234 3233 3233 3233 3234 3234 3235 3235 3234 3234 3233 3231 3231 3230 3231 3231 3230 3229 3228 3228 3228 3227 3226 3226 3225 3224 3223 3222 3223 3223 3222 3220
3218 3220 3222 3224 3224 3226 3228 3229 3231 3231 3232 3234 3234 3235 3234 3235 3235 3235 3235 3234 3235 3235 3232 3232 3232 3231 3231 3231 3230 3229 3229 3229 3228 3227 3226 3225 3224 3223 3222 3222 3221 3220 3219
3217 3218 3219 3221 3223 3224 3227 3229 3230 3231 3232 3233 3235 3236 3236 3236 3237 3236 3236 3235 3235 3234 3233 3234 3233 3232 3232 3231 3230 3229 3228 3228 3228 3227 3226 3225 3224 3222 3221 3221 3220 3219 3218
3215 3216 3217 3219 3220 3221 3225 3227 3229 3231 3232 3233 3235 3236 3237 3237 3237 3236 3235 3236 3235 3234 3234 3233 3233 3233 3232 3232 3231 3229 3228 3227 3226 3225 3225 3224 3223 3222 3221 3219 3218 3217 3215
3211 3214 3215 3217 3218 3219 3221 3225 3228 3230 3231 3232 3234 3235 3236 3237 3237 3237 3237 3237 3237 3235 3234 3233 3233 3232 3231 3232 3230 3229 3228 3226 3225 3224 3223 3222 3220 3220 3218 3217 3216 3213 3214
3207 3209 3212 3215 3216 3218 3219 3221 3224 3227 3229 3231 3232 3233 3235 3236 3237 3237 3238 3238 3237 3236 3234 3233 3232 3231 3230 3230 3229 3228 3226 3225 3224 3222 3220 3218 3218 3217 3215 3213 3213 3211 3209
3204 3206 3208 3211 3213 3214 3216 3218 3221 3223 3225 3228 3230 3231 3233 3233 3235 3235 3236 3236 3236 3235 3233 3231 3231 3230 3228 3227 3226 3225 3223 3222 3220 3219 3218 3216 3214 3214 3211 3209 3208 3207 3204
3201 3203 3204 3206 3209 3212 3213 3216 3218 3220 3222 3224 3226 3228 3230 3231 3231 3232 3233 3233 3233 3233 3233 3230 3228 3227 3227 3225 3224 3222 3220 3218 3218 3216 3215 3214 3211 3210 3208 3207 3205 3203 3200
3196 3199 3200 3202 3206 3209 3210 3212 3214 3216 3217 3219 3221 3222 3225 3227 3228 3228 3228 3229 3230 3229 3229 3228 3226 3225 3223 3222 3221 3220 3218 3217 3214 3213 3212 3211 3209 3207 3204 3202 3200 3199 3196
3192 3195 3197 3199 3201 3204 3206 3207 3209 3211 3213 3214 3215 3217 3218 3219 3222 3224 3224 3224 3224 3224 3224 3224 3223 3221 3221 3219 3217 3216 3215 3213 3211 3209 3207 3206 3204 3202 3200 3197 3195 3192 3190
3187 3191 3193 3195 3197 3198 3200 3203 3204 3206 3208 3209 3209 3210 3212 3214 3215 3217 3217 3217 3217 3217 3216 3217 3217 3216 3214 3214 3213 3212 3210 3207 3206 3204 3202 3201 3200 3200 3197 3193 3190 3189 3186
3184 3187 3188 3191 3192 3194 3196 3198 3200 3202 3203 3203 3204 3204 3204 3206 3208 3210 3210 3211 3211 3210 3210 3210 3210 3209 3209 3207 3206 3206 3203 3201 3200 3199 3196 3195 3192 3193 3193 3189 3187 3185 3181
3180 3182 3184 3186 3187 3189 3191 3193 3195 3196 3197 3198 3199 3200 3199 3199 3200 3202 3203 3202 3203 3203 3202 3202 3200 3201 3202 3202 3199 3197 3197 3195 3193 3191 3190 3188 3185 3184 3186 3185 3181 3179 3176
3173 3177 3179 3181 3182 3184 3185 3187 3190 3190 3190 3190 3191 3193 3193 3194 3193 3193 3194 3193 3192 3193 3194 3193 3191 3193 3193 3193 3189 3188 3187 3186 3185 3184 3184 3184 3181 3177 3178 3179 3177 3174 3171
3165 3168 3172 3174 3176 3177 3179 3180 3182 3182 3183 3183 3183 3184 3184 3184 3185 3186 3183 3182 3183 3182 3184 3184 3183 3181 3180 3180 3180 3178 3177 3177 3176 3175 3172 3173 3174 3171 3168 3171 3169 3166 3164
3156 3159 3162 3165 3168 3170 3171 3172 3173 3173 3174 3175 3175 3175 3175 3174 3174 3174 3174 3173 3171 3171 3173 3174 3173 3171 3169 3167 3163 3164 3167 3166 3166 3165 3166 3163 3165 3162 3159 3161 3160 3158 3156